Terminal Aerodrome Forecast
Issued by NWS

Home | Current Version | Previous Version | Text Only | Print | Product List | Glossary On
Versions: 1 2 3 4 5 6 7 8 9 10 11 12 13 14 15 16 17 18 19 20 21 22 23
277
FTUS45 KRIW 290530
TAFPNA
TAF
KPNA 290530Z 2906/3006 30006KT P6SM SKC
     FM291700 VRB05KT P6SM SCT100 BKN200
     FM292000 29009KT P6SM VCTS SCT060CB BKN090
     FM300100 30008KT P6SM VCSH SCT060 BKN080
      AMD LTD TO CLD VIS AND WIND=

USA.gov is the U.S. government's official web portal to all federal, state and local government web resources and services.